Plymouth, MA

8:39 AM EDT on June 24, 2017 (GMT -0400)
Plymouth Municipal

Weather History for KPYM - September, 2013

Change the Weather History Date:

Thursday, September 19, 2013

  Actual Average Record
Temperature  
Mean Temperature 62 °F -  
Max Temperature 79 °F 71 °F 85 °F (1955)
Min Temperature 46 °F 51 °F 36 °F (1982)
Degree Days  
Heating Degree Days 2    
Growing Degree Days 12 (Base 50)    
Moisture  
Dew Point 49 °F    
Average Humidity 67    
Maximum Humidity 90    
Minimum Humidity 34    
Precipitation  
Precipitation 0.00 in - - ()
Sea Level Pressure  
Sea Level Pressure 30.11 in    
Wind  
Wind Speed 2 mph (WSW)    
Max Wind Speed 8 mph    
Max Gust Speed -    
Visibility 10 miles    
Events      
Averages and records for this station are not official NWS values.
T = Trace of Precipitation, MM = Missing Value Source: NWS Daily Summary

Daily Weather History Graph

Daily Weather History Graph

Search for Another Location

Airport or City:

Trip Planner

Search our weather history database for the weather conditions in past years. The results will help you decide how hot, cold, wet, or windy it might be!

Date:

Astronomy

Sep. 19, 2013 Rise Set
Actual Time 6:27 AM EDT 6:45 PM EDT
Civil Twilight 5:59 AM EDT 7:12 PM EDT
Nautical Twilight 5:26 AM EDT 7:45 PM EDT
Astronomical Twilight 4:53 AM EDT 8:19 PM EDT
Moon 6:40 PM EDT (9/19) 6:33 AM EDT (9/19)
Length of Visible Light 13h 13m
Length of Day
12h 17m
Full, 100% of the Moon is Illuminated
Sep 19
Full
Sep 26
Last Quarter
Oct 4
New
Oct 11
First Quarter
Oct 18
Full

Hourly Weather History & Observations

Time (EDT) Temp. Dew Point Humidity Pressure Visibility Wind Dir Wind Speed Gust Speed Precip Events Conditions
12:52 AM 48.9 °F 46.0 °F 90% 30.16 in 10.0 mi WSW 3.5 mph - N/A   Clear
1:52 AM 50.0 °F 46.0 °F 86% 30.16 in 10.0 mi Calm Calm - N/A   Clear
2:52 AM 46.9 °F 44.1 °F 90% 30.14 in 10.0 mi Calm Calm - N/A   Clear
3:52 AM 46.9 °F 44.1 °F 90% 30.13 in 10.0 mi Calm Calm - N/A   Clear
4:52 AM 46.9 °F 44.1 °F 90% 30.13 in 10.0 mi Calm Calm - N/A   Clear
5:52 AM 48.0 °F 43.0 °F 83% 30.14 in 10.0 mi Calm Calm - N/A   Clear
6:52 AM 46.0 °F 43.0 °F 89% 30.14 in 10.0 mi Calm Calm - N/A   Clear
7:52 AM 55.0 °F 50.0 °F 83% 30.14 in 10.0 mi West 3.5 mph - N/A   Clear
8:52 AM 60.1 °F 48.0 °F 64% 30.14 in 10.0 mi West 5.8 mph - N/A   Clear
9:52 AM 64.9 °F 48.9 °F 56% 30.14 in 10.0 mi Variable 3.5 mph - N/A   Clear
10:52 AM 70.0 °F 50.0 °F 49% 30.13 in 10.0 mi Calm Calm - N/A   Clear
11:52 AM 73.0 °F 48.0 °F 41% 30.12 in 10.0 mi WSW 3.5 mph - N/A   Clear
12:52 PM 75.0 °F 48.9 °F 40% 30.11 in 10.0 mi Calm Calm - N/A   Clear
1:52 PM 79.0 °F 48.0 °F 34% 30.09 in 10.0 mi NW 4.6 mph - N/A   Clear
2:52 PM 78.1 °F 51.1 °F 39% 30.07 in 10.0 mi SW 8.1 mph - N/A   Clear
3:52 PM 75.9 °F 50.0 °F 40% 30.05 in 10.0 mi SSW 4.6 mph - N/A   Clear
4:52 PM 77.0 °F 52.0 °F 42% 30.05 in 10.0 mi SW 4.6 mph - N/A   Clear
5:52 PM 73.9 °F 53.1 °F 48% 30.05 in 10.0 mi WSW 6.9 mph - N/A   Clear
6:52 PM 69.1 °F 54.0 °F 58% 30.05 in 10.0 mi SSW 5.8 mph - N/A   Clear
7:52 PM 64.0 °F 53.1 °F 67% 30.07 in 10.0 mi SSW 5.8 mph - N/A   Clear
8:52 PM 57.9 °F 52.0 °F 81% 30.09 in 10.0 mi Calm Calm - N/A   Clear
9:52 PM 55.9 °F 50.0 °F 80% 30.08 in 10.0 mi Calm Calm - N/A   Clear
10:52 PM 54.0 °F 50.0 °F 86% 30.08 in 10.0 mi Calm Calm - N/A   Clear
11:52 PM 52.0 °F 46.9 °F 83% 30.08 in 10.0 mi Calm Calm - N/A   Clear